[[{"header":{"parameterUnit":"m.s-1","parameterCategory":2,"la1":30.2991,"la2":30.254,"lo1":-89.0895,"lo2":-89.0444,"dy":0.0017,"dx":0.0017,"nx":28,"ny":28,"refTime":"2025-05-27T21:00:00:Z","depth":"0","parameterNumber":2,"parameterNumberName":"U-component_of_CURRENTS"},"data":[0,0,0,0,0,0,0,0,0,0,0,0,0,0,0,0,0,0,0,0,0,0,0,0,0,0,0,0,0,0,0,0,0,0,0,0,0,0,0,0,0,0,0,0,0,0,0,0,0,0,0,0,0,0,0,0,0,0,0.1617,0.1617,0,0.1634,0.1635,0.1635,0.1642,0.1642,0.1642,0.1642,0.1651,0.1651,0.1651,0,0,0,0,0,0,0,0,0,0,0,0,0,0.1575,0.1576,0.1617,0.1617,0.1617,0.1634,0.1635,0.1635,0.1642,0.1642,0.1642,0.1642,0.1651,0.1651,0.1651,0,0,0,0,0,0,0,0,0,0,0,0,0,0.1593,0.1576,0.1617,0.1623,0.1623,0.1634,0.1635,0.1635,0.1642,0.1642,0.1642,0.1642,0.1651,0.1651,0.1652,0.1655,0,0,0.1653,0.1653,0,0,0,0,0,0,0,0,0.1592,0.1595,0.1622,0.1622,0.1623,0.1636,0.1623,0.1641,0.1642,0.1635,0.1642,0.1642,0.1645,0.1646,0.165,0.1656,0.1656,0.1653,0.1653,0.1653,0.1653,0,0,0,0,0,0,0,0.1591,0.1594,0.1624,0.1622,0.1623,0.162,0.1622,0.1627,0.164,0.1636,0.1636,0.1638,0.1645,0.1649,0.165,0.1656,0.1653,0.1653,0.1653,0.1654,0.1696,0.1697,0,0,0,0,0,0,0.159,0.1593,0.1623,0.1624,0.1607,0.1621,0.1624,0.1632,0.164,0.1642,0.1638,0.1638,0.1649,0.1649,0.165,0.1674,0.1653,0.1654,0.1654,0.1695,0.1696,0.1697,0,0,0,0,0,0,0.1589,0.1592,0.1622,0.1608,0.1612,0.1622,0.1631,0.1632,0.1637,0.1642,0.1643,0.1642,0.1649,0.165,0.1665,0.1674,0.1654,0.1654,0.1694,0.1696,0.1697,0.171,0,0,0,0,0,0,0.1588,0.1592,0.1597,0.1609,0.1613,0.1634,0.1631,0.1633,0.1639,0.1639,0.1646,0.1646,0.1649,0.1664,0.1665,0.1674,0.1655,0.1693,0.1695,0.1696,0.1709,0.1712,0.1715,0,0,0,0,0,0.1586,0.1595,0.1598,0.1601,0.162,0.1635,0.1637,0.1643,0.1639,0.1646,0.1654,0.1646,0.1675,0.1665,0.1666,0.1675,0.1692,0.1694,0.1696,0.1708,0.1711,0.1715,0,0,0,0,0,0,0.1573,0.1597,0.16,0.1613,0.1625,0.1636,0.1642,0.1643,0.1654,0.1655,0.1656,0.1658,0.168,0.1676,0.1665,0.1695,0.1683,0.1685,0.1692,0.1695,0.1698,0.1718,0.1655,0,0,0,0,0,0.1574,0.1592,0.1606,0.1617,0.1623,0.1632,0.1637,0.1643,0.1653,0.1657,0.1661,0.167,0.1689,0.169,0.1706,0.1713,0.1744,0.1722,0.1725,0.1727,0.1745,0.1823,0.1835,0.1704,0.1704,0.1704,0,0,0.157,0.1586,0.1594,0.1616,0.1625,0.1638,0.1635,0.1647,0.166,0.1657,0.1672,0.1685,0.1697,0.1717,0.1725,0.1711,0.1774,0.173,0.1731,0.1749,0.1827,0.184,0.1851,0.1705,0.1705,0.1705,0,0,0.1573,0.1587,0.1602,0.1616,0.1634,0.1643,0.1646,0.1659,0.1667,0.1684,0.1693,0.1716,0.1724,0.1744,0.1754,0.1782,0.1796,0.1777,0.1796,0.1871,0.1883,0.1894,0.1921,0.1935,0.1767,0.1767,0.1767,0,0.1563,0.1589,0.1607,0.1624,0.1636,0.1645,0.1659,0.1671,0.1687,0.1704,0.1693,0.1746,0.1745,0.179,0.1795,0.179,0.1822,0.1778,0.1877,0.1888,0.1899,0.1925,0.1939,0.1768,0.1768,0.1768,0.1768,0,0.1582,0.1598,0.1607,0.1636,0.1652,0.1666,0.1686,0.1702,0.1709,0.1727,0.1774,0.1787,0.1821,0.1817,0.181,0.1882,0.1874,0.188,0.1868,0.1914,0.1937,0.1952,0.177,0.1769,0.1769,0.1769,0,0,0.1557,0.161,0.161,0.1628,0.166,0.1675,0.1704,0.1739,0.177,0.1788,0.1837,0.186,0.1875,0.1889,0.1889,0.1938,0.2018,0.1935,0.1939,0.1963,0.2161,0.2036,0.204,0.2049,0.2052,0.2055,0.2135,0,0.1559,0.1597,0.1624,0.1653,0.1672,0.17,0.1731,0.1768,0.1797,0.1846,0.1879,0.1924,0.1899,0.1919,0.1968,0.202,0.2064,0.1994,0.2114,0.2117,0.2003,0.2057,0.1917,0.1967,0.215,0.2152,0.2154,0,0.1561,0.159,0.1624,0.1675,0.1687,0.1707,0.1769,0.18,0.1873,0.19,0.1955,0.1985,0.2053,0.203,0.2147,0.2107,0.2137,0.2168,0.2173,0.2069,0.2022,0.1958,0.1988,0.1936,0.2177,0.2175,0.2174,0,0.1537,0.1584,0.1614,0.163,0.1692,0.1715,0.1749,0.1817,0.1861,0.1942,0.199,0.2069,0.2122,0.2192,0.2226,0.2208,0.2353,0.2338,0.2254,0.2244,0.2154,0.213,0.2151,0.2438,0.2438,0.2438,0.2438,0,0.1527,0.1544,0.1606,0.1621,0.1667,0.171,0.177,0.1814,0.1897,0.1969,0.2019,0.2089,0.2174,0.2249,0.2273,0.2298,0.2394,0.2274,0.2271,0.2147,0.2123,0.2095,0.2089,0.2441,0.244,0.244,0.2439,0,0.1489,0.153,0.1568,0.1634,0.1657,0.169,0.1777,0.183,0.1901,0.2,0.2031,0.2138,0.2226,0.2276,0.2389,0.2347,0.2307,0.237,0.2184,0.2156,0.1984,0.1984,0.192,0.1887,0.2293,0.229,0.2288,0,0.1473,0.1491,0.1569,0.1604,0.1632,0.1691,0.1743,0.1822,0.1884,0.2027,0.208,0.2183,0.2251,0.2328,0.2277,0.228,0.2248,0.2133,0.2067,0.1964,0.1965,0.188,0.1853,0.1952,0.1948,0.1944,0.1941,0,0.1442,0.1474,0.1513,0.1588,0.1642,0.1713,0.1789,0.1834,0.1944,0.2019,0.2135,0.2198,0.2233,0.2166,0.212,0.2095,0.1995,0.2051,0.203,0.1767,0.1599,0.1567,0.1884,0.1907,0.1911,0.1913,0.1915,0.1916,0.1419,0.1444,0.1508,0.1575,0.1647,0.1731,0.1764,0.1845,0.1929,0.2001,0.2099,0.2104,0.2055,0.1961,0.1927,0.1709,0.177,0.1627,0.1656,0.1594,0.1491,0.1693,0.1653,0.1655,0.1656,0.1658,0.1659,0,0.1396,0.1437,0.1497,0.1584,0.1653,0.1704,0.1795,0.1805,0.1864,0.1897,0.1946,0.1829,0.1723,0.1642,0.143,0.1336,0.1278,0.1296,0.1189,0.1205,0.1464,0.1376,0.117,0.117,0.117,0.1171,0.1171,0.1171,0.139,0.1433,0.147,0.1568,0.1631,0.1688,0.1724,0.1726,0.1723,0.1641,0.1533,0.15,0.1439,0.1285,0.1115,0.1078,0.1036,0.0918,0.1013,0.1227,0.1261,0.1294,0.121,0.0973,0.0973,0.0659,0.0656,0.0655]},{"header":{"parameterUnit":"m.s-1","parameterCategory":2,"la1":30.2991,"la2":30.254,"lo1":-89.0895,"lo2":-89.0444,"dy":0.0017,"dx":0.0017,"nx":28,"ny":28,"refTime":"2025-05-27T21:00:00:Z","depth":"0","parameterNumber":3,"parameterNumberName":"V-component_of_CURRENTS"},"data":[0,0,0,0,0,0,0,0,0,0,0,0,0,0,0,0,0,0,0,0,0,0,0,0,0,0,0,0,0,0,0,0,0,0,0,0,0,0,0,0,0,0,0,0,0,0,0,0,0,0,0,0,0,0,0,0,0,0,-0.0021,-0.0021,0,-0.0007,-0.0007,-0.0007,-0.0012,-0.0012,-0.0013,-0.0013,-0.0014,-0.0014,-0.0014,0,0,0,0,0,0,0,0,0,0,0,0,0,-0.0036,-0.0036,-0.0021,-0.0021,-0.0021,-0.0007,-0.0007,-0.0007,-0.0012,-0.0012,-0.0013,-0.0013,-0.0015,-0.0014,-0.0014,0,0,0,0,0,0,0,0,0,0,0,0,0,-0.0027,-0.0036,-0.0021,-0.0021,-0.0021,-0.0007,-0.0007,-0.0007,-0.0012,-0.0012,-0.0013,-0.0013,-0.0015,-0.0014,-0.0014,-0.0003,0,0,-0.0013,-0.0013,0,0,0,0,0,0,0,0,-0.0027,-0.0026,-0.0022,-0.0021,-0.0021,-0.0012,-0.0013,-0.0006,-0.0012,-0.0016,-0.0013,-0.0013,-0.0014,-0.0014,-0.0011,-0.0003,-0.0003,-0.0013,-0.0013,-0.0012,-0.0012,0,0,0,0,0,0,0,-0.0028,-0.0027,-0.0016,-0.0021,-0.0021,-0.0017,-0.0016,-0.0011,-0.0013,-0.0015,-0.0016,-0.0014,-0.0015,-0.0011,-0.0011,-0.0003,-0.0013,-0.0013,-0.0012,-0.0012,0.0005,0.0005,0,0,0,0,0,0,-0.0029,-0.0027,-0.0016,-0.0015,-0.0025,-0.0016,-0.0015,-0.0014,-0.0013,-0.0013,-0.0013,-0.0014,-0.0011,-0.0011,-0.0011,-0.0002,-0.0012,-0.0012,-0.0012,0.0005,0.0005,0.0005,0,0,0,0,0,0,-0.003,-0.0029,-0.0017,-0.0021,-0.0019,-0.0016,-0.0014,-0.0014,-0.0012,-0.0011,-0.0012,-0.0012,-0.0012,-0.0011,-0.0006,-0.0002,-0.0012,-0.0012,0.0005,0.0005,0.0005,0.0018,0,0,0,0,0,0,-0.003,-0.0029,-0.0028,-0.0021,-0.0019,-0.0005,-0.0014,-0.0013,-0.001,-0.0011,-0.001,-0.0011,-0.0012,-0.0006,-0.0006,-0.0002,-0.0011,0.0004,0.0005,0.0005,0.0017,0.0019,0.002,0,0,0,0,0,-0.0031,-0.0025,-0.0028,-0.0026,-0.0018,-0.0005,-0.0003,-0.0002,-0.0009,-0.0004,-0.0006,-0.0011,-0.0003,-0.0006,-0.0005,-0.0001,0.0004,0.0005,0.0005,0.0017,0.0019,0.002,0,0,0,0,0,0,-0.0028,-0.0025,-0.0028,-0.0021,-0.0013,-0.0006,-0.0,-0.0002,0.0002,-0.0001,-0.0005,-0.0005,0.0,-0.0001,-0.0004,0.0005,-0.0001,-0.0001,0.0007,0.0009,0.001,0.0011,-0.0011,0,0,0,0,0,-0.0028,-0.0025,-0.0019,-0.0013,-0.0009,-0.0006,-0.0001,0.0,0.0004,0.0005,0.0005,0.0004,0.0005,0.0006,0.0008,0.0016,0.0026,0.0018,0.0019,0.002,0.0022,0.0055,0.0059,0.0007,0.0007,0.0007,0,0,-0.0025,-0.0022,-0.0021,-0.0012,-0.0008,0.0004,-0.0004,0.0006,0.0013,0.0004,0.0014,0.001,0.0008,0.0015,0.0017,0.0014,0.0039,0.0021,0.0022,0.0023,0.0056,0.0061,0.0066,0.0008,0.0008,0.0008,0,0,-0.0013,-0.0016,-0.0007,-0.0001,0.0008,0.0012,0.0014,0.0022,0.0023,0.0032,0.0024,0.0023,0.003,0.0027,0.0026,0.0037,0.0045,0.0037,0.0046,0.0077,0.0082,0.0087,0.0099,0.0104,0.0038,0.0038,0.0038,0,-0.0009,0.0001,-0.0001,0.001,0.0017,0.0015,0.0029,0.0032,0.0041,0.0041,0.0037,0.0042,0.0035,0.0041,0.004,0.004,0.0057,0.0039,0.008,0.0085,0.0089,0.0101,0.0106,0.0038,0.0038,0.0038,0.0038,0,0.0011,0.0019,0.0026,0.0037,0.0044,0.0057,0.006,0.0064,0.0062,0.0063,0.0068,0.0064,0.0066,0.0061,0.0052,0.0073,0.0075,0.0079,0.0078,0.0095,0.0106,0.0112,0.0039,0.0039,0.0039,0.0039,0,0,0.0023,0.0037,0.0039,0.0048,0.0059,0.0069,0.0077,0.0085,0.0092,0.0093,0.0109,0.0094,0.0089,0.0087,0.0079,0.0097,0.0131,0.01,0.0102,0.0114,0.0196,0.018,0.0185,0.0152,0.0153,0.0154,0.0188,0,0.0041,0.0066,0.0067,0.009,0.0104,0.0101,0.011,0.0113,0.0116,0.0133,0.0121,0.0135,0.0101,0.0109,0.0119,0.0141,0.0148,0.012,0.0175,0.0176,0.0162,0.0192,0.0202,0.0233,0.0194,0.0195,0.0196,0,0.0063,0.0076,0.0102,0.0116,0.0121,0.0132,0.0144,0.0154,0.0164,0.0166,0.017,0.0173,0.0189,0.0167,0.0198,0.0188,0.0185,0.0193,0.0195,0.0181,0.0171,0.021,0.0245,0.022,0.0205,0.0204,0.0203,0,0.0078,0.0101,0.0121,0.0127,0.0143,0.0148,0.0156,0.0163,0.0178,0.0199,0.0228,0.0229,0.0265,0.0262,0.0259,0.0244,0.0302,0.0287,0.026,0.0258,0.0276,0.0274,0.0296,0.0301,0.0301,0.0301,0.0301,0,0.01,0.0116,0.0128,0.014,0.0162,0.0165,0.0187,0.0192,0.0218,0.0262,0.0253,0.0305,0.0298,0.0325,0.0294,0.0301,0.033,0.0268,0.0274,0.0278,0.0276,0.0262,0.0238,0.0302,0.0302,0.0302,0.0302,0,0.0117,0.0125,0.015,0.0166,0.0171,0.0188,0.0212,0.0232,0.0257,0.0324,0.0343,0.0389,0.0433,0.0402,0.0419,0.0368,0.0352,0.0342,0.0334,0.0338,0.0278,0.0255,0.0282,0.0299,0.0328,0.0328,0.0328,0,0.0127,0.0142,0.0168,0.0184,0.0192,0.0214,0.023,0.0247,0.0285,0.0386,0.0436,0.0497,0.056,0.0556,0.0477,0.0419,0.0377,0.0366,0.0327,0.0283,0.0262,0.0248,0.026,0.0354,0.0355,0.0355,0.0355,0,0.0147,0.0156,0.0175,0.021,0.0231,0.0261,0.0298,0.0338,0.0392,0.0483,0.0611,0.0676,0.0664,0.0641,0.0535,0.0473,0.0362,0.0366,0.0341,0.03,0.027,0.0286,0.0305,0.0356,0.0356,0.0356,0.0356,0.0356,0.0159,0.0176,0.0204,0.0238,0.0267,0.0323,0.0376,0.0453,0.0561,0.073,0.0749,0.0883,0.0782,0.0658,0.056,0.0379,0.0386,0.0328,0.0308,0.0301,0.0305,0.0309,0.035,0.035,0.035,0.035,0.035,0,0.0172,0.0195,0.023,0.0278,0.0325,0.0338,0.0434,0.053,0.0705,0.0846,0.0977,0.1,0.0883,0.071,0.0458,0.0349,0.0317,0.0287,0.0279,0.0298,0.0327,0.0314,0.0325,0.0325,0.0325,0.0325,0.0325,0.0325,0.018,0.0212,0.0234,0.0318,0.0363,0.0461,0.0536,0.0713,0.0847,0.1073,0.1163,0.1198,0.1064,0.0627,0.0373,0.0307,0.0267,0.0229,0.023,0.0238,0.024,0.0243,0.0226,0.0218,0.0218,0.023,0.023,0.023]}],[{"header":{"parameterUnit":"m.s-1","parameterCategory":2,"la1":30.2991,"la2":30.254,"lo1":-89.0895,"lo2":-89.0444,"dy":0.0017,"dx":0.0017,"nx":28,"ny":28,"refTime":"2025-05-27T21:00:00:Z","depth":"2","parameterNumber":2,"parameterNumberName":"U-component_of_CURRENTS"},"data":[0,0,0,0,0,0,0,0,0,0,0,0,0,0,0,0,0,0,0,0,0,0,0,0,0,0,0,0,0,0,0,0,0,0,0,0,0,0,0,0,0,0,0,0,0,0,0,0,0,0,0,0,0,0,0,0,0,0,0.1126,0.1126,0,0.1132,0.1133,0.1133,0.1156,0.1157,0.1157,0.1158,0.1174,0.1174,0.1174,0,0,0,0,0,0,0,0,0,0,0,0,0,0.1131,0.1131,0.1126,0.1126,0.1126,0.1132,0.1133,0.1133,0.1156,0.1157,0.1157,0.1158,0.1174,0.1174,0.1174,0,0,0,0,0,0,0,0,0,0,0,0,0,0.1134,0.1131,0.1126,0.1137,0.1138,0.1132,0.1133,0.1133,0.1156,0.1157,0.1157,0.1158,0.1174,0.1174,0.1174,0.1164,0,0,0.1174,0.1174,0,0,0,0,0,0,0,0,0.1134,0.1134,0.1136,0.1136,0.1137,0.1142,0.114,0.1143,0.1156,0.1151,0.1158,0.1158,0.1162,0.1163,0.1166,0.1165,0.1165,0.1174,0.1174,0.1174,0.1174,0,0,0,0,0,0,0,0.1134,0.1134,0.1131,0.1135,0.1136,0.114,0.1142,0.1141,0.1156,0.1152,0.1153,0.115,0.1163,0.1166,0.1167,0.1166,0.1174,0.1174,0.1174,0.1174,0.1214,0.1215,0,0,0,0,0,0,0.1129,0.1134,0.1131,0.1131,0.1135,0.114,0.1141,0.1142,0.1155,0.1157,0.115,0.1151,0.1165,0.1166,0.1167,0.1203,0.1174,0.1174,0.1175,0.1213,0.1215,0.1216,0,0,0,0,0,0,0.1129,0.1129,0.113,0.1131,0.1131,0.1139,0.114,0.1142,0.1153,0.1153,0.1156,0.116,0.1166,0.1167,0.1189,0.1202,0.1175,0.1175,0.1212,0.1214,0.1215,0.1244,0,0,0,0,0,0,0.1129,0.1129,0.1132,0.113,0.1131,0.1143,0.1139,0.1141,0.1149,0.1152,0.1163,0.1164,0.1166,0.1189,0.1189,0.1202,0.1175,0.1211,0.1213,0.1215,0.1242,0.1247,0.125,0,0,0,0,0,0.1129,0.1128,0.1132,0.1132,0.1133,0.1143,0.1145,0.1153,0.1149,0.1164,0.1174,0.1165,0.12,0.119,0.119,0.1203,0.121,0.1212,0.1214,0.124,0.1246,0.125,0,0,0,0,0,0,0.1129,0.113,0.1134,0.1134,0.1146,0.1147,0.1152,0.1156,0.1173,0.1175,0.1176,0.1179,0.1204,0.12,0.1188,0.1221,0.1204,0.1206,0.1223,0.1228,0.1233,0.124,0.1175,0,0,0,0,0,0.113,0.1133,0.1139,0.114,0.1144,0.1149,0.1154,0.1162,0.1172,0.118,0.1187,0.1196,0.1211,0.1217,0.1229,0.1242,0.1262,0.1251,0.1255,0.1259,0.1266,0.1336,0.1348,0.1223,0.1223,0.1223,0,0,0.113,0.113,0.1133,0.1141,0.1147,0.1157,0.1155,0.1166,0.118,0.1177,0.12,0.1211,0.1219,0.1243,0.1252,0.1241,0.1301,0.1262,0.1264,0.127,0.134,0.1352,0.1363,0.1224,0.1224,0.1224,0,0,0.1131,0.1133,0.1139,0.1149,0.1161,0.1165,0.1171,0.1182,0.1196,0.1216,0.1224,0.1245,0.1256,0.1273,0.1279,0.131,0.1323,0.1314,0.1337,0.1405,0.1416,0.1426,0.1449,0.1461,0.1313,0.1313,0.1313,0,0.1134,0.1137,0.1144,0.1153,0.1161,0.117,0.1183,0.1196,0.1216,0.1229,0.1228,0.1273,0.127,0.1313,0.1322,0.1319,0.1354,0.1315,0.1412,0.1422,0.1432,0.1453,0.1466,0.1314,0.1314,0.1314,0.1314,0,0.1142,0.1146,0.1149,0.1164,0.1179,0.1189,0.1208,0.1227,0.1236,0.1247,0.1295,0.1314,0.1345,0.1344,0.1337,0.1406,0.1405,0.1412,0.14,0.1447,0.1465,0.1478,0.1317,0.1316,0.1316,0.1315,0,0,0.1139,0.1153,0.1153,0.1162,0.1185,0.1195,0.1224,0.125,0.1277,0.1301,0.1351,0.1366,0.1388,0.1399,0.1413,0.1459,0.1536,0.1466,0.1469,0.1489,0.1674,0.1539,0.154,0.1578,0.1581,0.1583,0.1651,0,0.1143,0.1159,0.1167,0.1184,0.1194,0.1215,0.1239,0.1267,0.1303,0.1354,0.1384,0.1434,0.1409,0.1446,0.1489,0.1535,0.1576,0.1516,0.1625,0.1627,0.1504,0.1553,0.142,0.1459,0.1664,0.1666,0.1667,0,0.1142,0.1155,0.1174,0.1194,0.1201,0.1217,0.1269,0.1296,0.1362,0.1398,0.1461,0.1498,0.1564,0.1552,0.165,0.1622,0.165,0.1675,0.1679,0.1554,0.1517,0.145,0.1475,0.1689,0.1687,0.1686,0.1684,0,0.1131,0.1152,0.1167,0.1175,0.1206,0.1224,0.1247,0.1306,0.135,0.145,0.1504,0.1583,0.1645,0.1707,0.1725,0.1718,0.1831,0.1826,0.1728,0.1718,0.1623,0.1598,0.191,0.191,0.191,0.191,0.1909,0,0.112,0.113,0.1163,0.1168,0.1198,0.1223,0.1276,0.1315,0.1404,0.1465,0.1535,0.1614,0.1697,0.1756,0.1772,0.177,0.1868,0.1738,0.1737,0.1623,0.1599,0.1813,0.1801,0.1912,0.1912,0.1911,0.1911,0,0.1098,0.1118,0.1136,0.1173,0.1191,0.1214,0.129,0.1336,0.1415,0.1517,0.1557,0.1664,0.1731,0.1772,0.1866,0.1812,0.1835,0.1811,0.1636,0.161,0.1666,0.1655,0.1724,0.172,0.1717,0.1714,0.1712,0,0.1085,0.1093,0.1138,0.1164,0.1183,0.1231,0.127,0.1343,0.1403,0.1536,0.1584,0.168,0.1717,0.1761,0.1717,0.1704,0.1781,0.1554,0.1497,0.1661,0.1653,0.1647,0.1641,0.1389,0.1384,0.138,0.1377,0,0.1065,0.1084,0.1099,0.1155,0.1196,0.1248,0.131,0.1347,0.1438,0.1516,0.1594,0.1628,0.1644,0.1557,0.151,0.1486,0.1537,0.1468,0.1742,0.1427,0.1343,0.1335,0.1341,0.1342,0.1346,0.1348,0.135,0.1352,0.1048,0.1062,0.1092,0.1136,0.12,0.1253,0.126,0.1325,0.1387,0.1428,0.1498,0.1471,0.1459,0.13,0.1251,0.12,0.1306,0.1246,0.126,0.1279,0.1198,0.111,0.105,0.1051,0.1053,0.1054,0.1055,0,0.1027,0.105,0.1085,0.1127,0.1173,0.1233,0.1281,0.1252,0.128,0.1301,0.1306,0.1142,0.1062,0.1067,0.0925,0.0879,0.09,0.0849,0.089,0.0924,0.0955,0.0861,0.0621,0.062,0.0619,0.0618,0,0,0.1023,0.103,0.1044,0.1087,0.1137,0.1167,0.1181,0.1127,0.111,0.1037,0.0989,0.0983,0.102,0.0812,0.0771,0.0686,0.0806,0.0648,0.0996,0.108,0.111,0.1178,0.1068,0,0,0,0,0]},{"header":{"parameterUnit":"m.s-1","parameterCategory":2,"la1":30.2991,"la2":30.254,"lo1":-89.0895,"lo2":-89.0444,"dy":0.0017,"dx":0.0017,"nx":28,"ny":28,"refTime":"2025-05-27T21:00:00:Z","depth":"2","parameterNumber":3,"parameterNumberName":"V-component_of_CURRENTS"},"data":[0,0,0,0,0,0,0,0,0,0,0,0,0,0,0,0,0,0,0,0,0,0,0,0,0,0,0,0,0,0,0,0,0,0,0,0,0,0,0,0,0,0,0,0,0,0,0,0,0,0,0,0,0,0,0,0,0,0,-0.001,-0.001,0,0.0001,0.0001,0.0001,-0.0006,-0.0006,-0.0007,-0.0007,-0.0013,-0.0012,-0.0012,0,0,0,0,0,0,0,0,0,0,0,0,0,-0.0027,-0.0027,-0.001,-0.001,-0.001,0.0001,0.0001,0.0001,-0.0006,-0.0006,-0.0007,-0.0007,-0.0013,-0.0012,-0.0012,0,0,0,0,0,0,0,0,0,0,0,0,0,-0.0019,-0.0027,-0.001,-0.0012,-0.0012,0.0001,0.0001,0.0001,-0.0006,-0.0006,-0.0007,-0.0007,-0.0013,-0.0012,-0.0012,-0.0003,0,0,-0.0012,-0.0012,0,0,0,0,0,0,0,0,-0.0019,-0.0018,-0.0012,-0.0012,-0.0012,-0.0004,-0.0007,-0.0001,-0.0006,-0.0009,-0.0007,-0.0007,-0.001,-0.0011,-0.0008,-0.0003,-0.0004,-0.0012,-0.0012,-0.0012,-0.0012,0,0,0,0,0,0,0,-0.002,-0.0019,-0.0007,-0.0011,-0.0011,-0.0009,-0.0009,-0.0006,-0.0008,-0.0009,-0.0009,-0.0007,-0.0011,-0.0008,-0.0008,-0.0004,-0.0012,-0.0012,-0.0012,-0.0011,0.0001,0.0001,0,0,0,0,0,0,-0.002,-0.0019,-0.0007,-0.0006,-0.0016,-0.0009,-0.0008,-0.0006,-0.0008,-0.0008,-0.0006,-0.0007,-0.0008,-0.0009,-0.0009,-0.0001,-0.0012,-0.0011,-0.0011,0.0,0.0001,0.0001,0,0,0,0,0,0,-0.002,-0.0019,-0.0007,-0.0012,-0.001,-0.0008,-0.0006,-0.0006,-0.0005,-0.0006,-0.0007,-0.0006,-0.0009,-0.0009,-0.0006,-0.0002,-0.0011,-0.0011,0.0,0.0,0.0001,0.0015,0,0,0,0,0,0,-0.0021,-0.0019,-0.0018,-0.0012,-0.001,0.0002,-0.0006,-0.0005,-0.0003,-0.0004,-0.0006,-0.0007,-0.0009,-0.0006,-0.0006,-0.0002,-0.0011,-0.0,0.0,0.0001,0.0015,0.0016,0.0017,0,0,0,0,0,-0.0022,-0.0015,-0.0018,-0.0017,-0.0009,0.0002,0.0004,0.0003,-0.0003,0.0001,-0.0002,-0.0007,-0.0004,-0.0006,-0.0006,-0.0001,-0.0,0.0,0.0001,0.0014,0.0016,0.0017,0,0,0,0,0,0,-0.0019,-0.0015,-0.0018,-0.0011,-0.0005,0.0001,0.0006,0.0004,0.0005,0.0003,-0.0002,-0.0003,0.0001,-0.0001,-0.0004,0.0003,-0.0003,-0.0003,0.0007,0.0008,0.001,0.0014,-0.0011,0,0,0,0,0,-0.0019,-0.0015,-0.001,-0.0004,-0.0001,0.0001,0.0005,0.0005,0.0008,0.0008,0.0007,0.0005,0.0004,0.0005,0.0005,0.0011,0.0019,0.0014,0.0015,0.0017,0.002,0.0045,0.0049,0.0002,0.0002,0.0002,0,0,-0.0017,-0.0013,-0.0012,-0.0004,-0.0,0.001,0.0002,0.001,0.0017,0.0007,0.0015,0.0011,0.0007,0.0012,0.0014,0.0011,0.0032,0.0017,0.0018,0.0021,0.0046,0.005,0.0054,0.0003,0.0003,0.0003,0,0,-0.0006,-0.0007,0.0001,0.0007,0.0014,0.0017,0.0019,0.0026,0.0025,0.0033,0.0025,0.0024,0.0027,0.0025,0.0024,0.0034,0.0039,0.0033,0.0045,0.0069,0.0073,0.0077,0.0087,0.0092,0.0034,0.0034,0.0034,0,-0.0003,0.0008,0.0005,0.0017,0.0024,0.0021,0.0034,0.0035,0.0042,0.0044,0.0037,0.004,0.0034,0.004,0.004,0.0038,0.005,0.0038,0.0071,0.0075,0.0079,0.0089,0.0094,0.0035,0.0035,0.0035,0.0035,0,0.0016,0.0024,0.0031,0.0041,0.0048,0.006,0.0063,0.0067,0.0065,0.0066,0.007,0.0063,0.0065,0.0061,0.0052,0.0071,0.0071,0.0071,0.0068,0.0085,0.0094,0.0098,0.0036,0.0036,0.0035,0.0035,0,0,0.0024,0.004,0.0042,0.0052,0.0062,0.0072,0.0081,0.0091,0.0099,0.0097,0.0114,0.0099,0.0093,0.0091,0.0081,0.0095,0.0124,0.0095,0.0095,0.0107,0.0173,0.0155,0.0159,0.0136,0.0137,0.0138,0.0167,0,0.004,0.0065,0.0068,0.0092,0.0105,0.0104,0.0116,0.0121,0.0123,0.0139,0.0128,0.014,0.0106,0.0112,0.0118,0.0134,0.0139,0.0115,0.0154,0.0155,0.0139,0.0165,0.0158,0.0183,0.0172,0.0173,0.0173,0,0.006,0.0074,0.0098,0.0119,0.0124,0.0136,0.0153,0.0164,0.0176,0.0178,0.0179,0.0179,0.0193,0.0167,0.0188,0.0179,0.0171,0.0175,0.0177,0.0159,0.0146,0.0165,0.0192,0.0182,0.0181,0.018,0.018,0,0.0072,0.0097,0.0116,0.0124,0.0145,0.0153,0.0165,0.0175,0.0193,0.021,0.024,0.0234,0.0266,0.0253,0.0244,0.0228,0.0275,0.0256,0.0224,0.0222,0.0223,0.0219,0.0263,0.0263,0.0263,0.0263,0.0263,0,0.0091,0.0108,0.0123,0.0136,0.0162,0.017,0.0196,0.0204,0.0232,0.0283,0.0266,0.0316,0.0295,0.0315,0.0277,0.0272,0.0299,0.0233,0.0234,0.0226,0.0222,0.0225,0.0221,0.0264,0.0264,0.0263,0.0263,0,0.0103,0.0113,0.014,0.0161,0.0169,0.019,0.0223,0.0248,0.0273,0.0347,0.0366,0.0402,0.0433,0.0392,0.0393,0.0337,0.0317,0.0298,0.0279,0.0277,0.0236,0.0231,0.0275,0.0274,0.0274,0.0274,0.0274,0,0.0111,0.0126,0.0157,0.0176,0.0187,0.0214,0.0239,0.0263,0.0309,0.0412,0.047,0.0515,0.0562,0.0532,0.0438,0.0363,0.0341,0.0296,0.0254,0.0243,0.024,0.0236,0.0232,0.026,0.0259,0.0259,0.0259,0,0.0128,0.0138,0.016,0.0201,0.023,0.0271,0.0322,0.0372,0.0439,0.0524,0.0652,0.0697,0.0655,0.0589,0.046,0.0396,0.0303,0.0288,0.0311,0.025,0.0229,0.0226,0.0223,0.0257,0.0257,0.0257,0.0258,0.0258,0.014,0.0158,0.019,0.0231,0.027,0.0349,0.0414,0.0501,0.0616,0.0767,0.0779,0.084,0.0722,0.0564,0.0442,0.0295,0.031,0.0249,0.025,0.0251,0.0237,0.0216,0.0238,0.0238,0.0238,0.0238,0.0238,0,0.0155,0.0179,0.0219,0.0287,0.035,0.0363,0.0486,0.0588,0.0767,0.0842,0.0939,0.0827,0.0727,0.0575,0.0362,0.0243,0.0221,0.0195,0.0196,0.0199,0.0202,0.0184,0.0172,0.0171,0.0171,0.017,0,0,0.0164,0.0202,0.0227,0.0342,0.0398,0.0516,0.0602,0.0775,0.0869,0.0977,0.0977,0.095,0.0764,0.0594,0.0427,0.0303,0.0275,0.0269,0.0336,0.0361,0.0365,0.0248,0.0226,0,0,0,0,0]}],[{"header":{"parameterUnit":"m.s-1","parameterCategory":2,"la1":30.2991,"la2":30.254,"lo1":-89.0895,"lo2":-89.0444,"dy":0.0017,"dx":0.0017,"nx":28,"ny":28,"refTime":"2025-05-27T21:00:00:Z","depth":"4","parameterNumber":2,"parameterNumberName":"U-component_of_CURRENTS"},"data":[0,0,0,0,0,0,0,0,0,0,0,0,0,0,0,0,0,0,0,0,0,0,0,0,0,0,0,0,0,0,0,0,0,0,0,0,0,0,0,0,0,0,0,0,0,0,0,0,0,0,0,0,0,0,0,0,0,0,0.0392,0.0392,0,0.0378,0.0377,0.0377,0.039,0.0391,0.0391,0.0392,0.0438,0.0439,0.0439,0,0,0,0,0,0,0,0,0,0,0,0,0,0.0415,0.0415,0.0392,0.0392,0.0393,0.0378,0.0377,0.0377,0.039,0.0391,0.0392,0.0393,0.0438,0.0439,0.0439,0,0,0,0,0,0,0,0,0,0,0,0,0,0.04,0.0414,0.0392,0.04,0.04,0.0378,0.0377,0.0377,0.0389,0.0391,0.0392,0.0393,0.0438,0.0439,0.0439,0.0418,0,0,0.0441,0.0442,0,0,0,0,0,0,0,0,0.0401,0.0399,0.0398,0.0399,0.04,0.039,0.0402,0.0395,0.0389,0.039,0.0392,0.0394,0.0429,0.043,0.0419,0.0421,0.0423,0.0441,0.0442,0.0442,0.0442,0,0,0,0,0,0,0,0.0402,0.04,0.0383,0.0399,0.0399,0.0398,0.0397,0.04,0.0401,0.039,0.0392,0.0395,0.0429,0.0418,0.0421,0.0423,0.0441,0.0442,0.0442,0.0443,0.0487,0.0488,0,0,0,0,0,0,0.041,0.0401,0.0384,0.0383,0.0407,0.0397,0.0396,0.0389,0.04,0.0403,0.0394,0.0396,0.0417,0.042,0.0422,0.0463,0.0442,0.0443,0.0443,0.0486,0.0487,0.0488,0,0,0,0,0,0,0.041,0.0408,0.0384,0.0395,0.0392,0.0396,0.0388,0.0388,0.0398,0.0403,0.0407,0.0406,0.0418,0.0422,0.0456,0.0463,0.0443,0.0444,0.0485,0.0486,0.0488,0.0503,0,0,0,0,0,0,0.0411,0.0408,0.0412,0.0395,0.0392,0.0393,0.0387,0.0387,0.0398,0.0401,0.0414,0.0418,0.0419,0.0455,0.0457,0.0463,0.0444,0.0484,0.0486,0.0487,0.0502,0.0505,0.0507,0,0,0,0,0,0.0411,0.0411,0.0412,0.0411,0.0395,0.0394,0.0393,0.0397,0.0398,0.0408,0.0424,0.0419,0.0465,0.0457,0.0458,0.0465,0.0484,0.0485,0.0487,0.05,0.0504,0.0507,0,0,0,0,0,0,0.0433,0.0412,0.0413,0.041,0.0414,0.0398,0.0404,0.0405,0.042,0.043,0.0431,0.0437,0.0468,0.0467,0.0458,0.0483,0.0472,0.0474,0.0482,0.0485,0.0488,0.0484,0.0445,0,0,0,0,0,0.0436,0.0426,0.0419,0.042,0.042,0.0414,0.0416,0.0422,0.0429,0.0436,0.045,0.0463,0.0469,0.0481,0.0492,0.0506,0.052,0.0512,0.0514,0.0517,0.0516,0.0562,0.0569,0.0494,0.0494,0.0494,0,0,0.0444,0.0434,0.0429,0.0424,0.0421,0.0419,0.0418,0.0428,0.0436,0.0439,0.0465,0.0477,0.0478,0.0497,0.0509,0.0502,0.0545,0.0519,0.0521,0.0518,0.0565,0.0572,0.0579,0.0495,0.0495,0.0494,0,0,0.0451,0.0447,0.044,0.0438,0.0443,0.044,0.0448,0.0451,0.0464,0.0487,0.049,0.0515,0.0528,0.0531,0.053,0.0555,0.056,0.0556,0.0564,0.0609,0.0616,0.0622,0.0644,0.0651,0.0554,0.0554,0.0554,0,0.0471,0.045,0.0444,0.0438,0.0438,0.045,0.045,0.0458,0.048,0.0488,0.0507,0.0529,0.054,0.0544,0.0556,0.056,0.0582,0.0548,0.0613,0.0619,0.0625,0.0646,0.0655,0.0555,0.0555,0.0555,0.0555,0,0.0457,0.0454,0.0452,0.0441,0.0446,0.0451,0.046,0.048,0.05,0.0506,0.0538,0.056,0.0577,0.0577,0.0573,0.0608,0.0608,0.0614,0.0603,0.0634,0.0654,0.0662,0.0557,0.0556,0.0556,0.0556,0,0,0.0476,0.0446,0.045,0.044,0.0448,0.0446,0.0466,0.0477,0.0487,0.0525,0.0544,0.0563,0.0589,0.059,0.0598,0.0626,0.0688,0.0639,0.0641,0.0658,0.0779,0.0688,0.0688,0.0711,0.0713,0.0715,0.0774,0,0.0474,0.045,0.0445,0.0441,0.0429,0.0443,0.0453,0.047,0.0499,0.0528,0.0554,0.0585,0.0589,0.0614,0.0645,0.0687,0.0712,0.067,0.0749,0.0751,0.0664,0.0695,0.072,0.0781,0.0783,0.0784,0.0785,0,0.0463,0.0448,0.0432,0.0421,0.0419,0.0429,0.0446,0.0459,0.0496,0.0526,0.0568,0.0598,0.0652,0.0658,0.0743,0.0722,0.0752,0.0772,0.0776,0.069,0.0675,0.0746,0.08,0.0799,0.0798,0.0797,0.0796,0,0.0456,0.0442,0.0426,0.042,0.0413,0.0424,0.0435,0.0463,0.0477,0.0545,0.058,0.0638,0.0701,0.0748,0.0795,0.0792,0.0874,0.088,0.0814,0.0807,0.0865,0.0858,0.0931,0.0931,0.0931,0.093,0.093,0,0.0443,0.0437,0.0424,0.0414,0.0402,0.0416,0.0429,0.045,0.0498,0.0523,0.0592,0.0634,0.0734,0.0785,0.0812,0.0834,0.0899,0.0816,0.082,0.0869,0.0862,0.0871,0.0863,0.0933,0.0932,0.0932,0.0931,0,0.0434,0.0423,0.0397,0.0391,0.0395,0.0388,0.0415,0.0422,0.049,0.0537,0.0571,0.0667,0.0748,0.0794,0.0881,0.0861,0.0881,0.0863,0.0897,0.0901,0.0782,0.0774,0.0819,0.0817,0.0814,0.0813,0.0811,0,0.0425,0.0411,0.0375,0.0341,0.0342,0.0346,0.0348,0.0412,0.0421,0.0544,0.0552,0.0667,0.0723,0.0766,0.0824,0.0854,0.0837,0.084,0.0818,0.0773,0.0773,0.0769,0.0765,0.0807,0.0807,0.0806,0.0806,0,0.0411,0.0394,0.0363,0.0294,0.0282,0.0252,0.0266,0.0285,0.0373,0.0456,0.0535,0.0599,0.0675,0.0734,0.0751,0.0768,0.0839,0.0816,0.0821,0.0802,0.0759,0.076,0.0759,0.0798,0.0799,0.08,0.08,0,0.0402,0.0361,0.0308,0.0241,0.019,0.014,0.0176,0.0207,0.025,0.0403,0.0436,0.0563,0.0672,0.0688,0.0703,0.0711,0.0712,0.0689,0.0701,0.071,0.0644,0.0571,0.0559,0,0,0,0,0,0.0394,0.0329,0.0252,0.0153,0.0086,0.0072,0.0091,0.0141,0.0269,0.0304,0.0369,0.0438,0.0526,0.0577,0.0566,0.0635,0.069,0.0617,0.0663,0.0755,0.0764,0.0694,0,0,0,0,0,0,0.0377,0.0312,0.0245,0.0085,0.0009,-0.0043,-0.0021,0.0075,0.0084,0.0228,0.0266,0.0386,0.0453,0.0524,0.0551,0.0565,0.0577,0.0691,0.0688,0.0749,0.0758,0.0765,0.0696,0,0,0,0,0]},{"header":{"parameterUnit":"m.s-1","parameterCategory":2,"la1":30.2991,"la2":30.254,"lo1":-89.0895,"lo2":-89.0444,"dy":0.0017,"dx":0.0017,"nx":28,"ny":28,"refTime":"2025-05-27T21:00:00:Z","depth":"4","parameterNumber":3,"parameterNumberName":"V-component_of_CURRENTS"},"data":[0,0,0,0,0,0,0,0,0,0,0,0,0,0,0,0,0,0,0,0,0,0,0,0,0,0,0,0,0,0,0,0,0,0,0,0,0,0,0,0,0,0,0,0,0,0,0,0,0,0,0,0,0,0,0,0,0,0,0.0058,0.0058,0,0.0069,0.0069,0.0069,0.007,0.0069,0.0069,0.0069,0.0065,0.0065,0.0065,0,0,0,0,0,0,0,0,0,0,0,0,0,0.0041,0.0041,0.0058,0.0058,0.0058,0.0069,0.0069,0.0069,0.007,0.0069,0.0069,0.0069,0.0065,0.0065,0.0065,0,0,0,0,0,0,0,0,0,0,0,0,0,0.0051,0.0042,0.0058,0.0059,0.0059,0.0069,0.0069,0.0069,0.007,0.0069,0.0069,0.0069,0.0065,0.0065,0.0065,0.0072,0,0,0.0066,0.0066,0,0,0,0,0,0,0,0,0.005,0.0051,0.0059,0.0059,0.0059,0.0067,0.0062,0.0069,0.007,0.0067,0.0069,0.0069,0.0064,0.0064,0.0068,0.0072,0.0072,0.0066,0.0066,0.0066,0.0066,0,0,0,0,0,0,0,0.0049,0.0051,0.0063,0.0059,0.0059,0.006,0.0061,0.0063,0.0067,0.0067,0.0067,0.0067,0.0064,0.0068,0.0068,0.0072,0.0066,0.0066,0.0066,0.0066,0.0074,0.0074,0,0,0,0,0,0,0.0047,0.005,0.0063,0.0064,0.0053,0.0061,0.0062,0.0066,0.0068,0.0068,0.0067,0.0067,0.0068,0.0068,0.0068,0.0081,0.0066,0.0066,0.0066,0.0073,0.0074,0.0074,0,0,0,0,0,0,0.0046,0.0048,0.0063,0.0056,0.0058,0.0061,0.0065,0.0066,0.0068,0.0068,0.0067,0.0069,0.0068,0.0068,0.0069,0.0081,0.0066,0.0066,0.0073,0.0074,0.0074,0.0105,0,0,0,0,0,0,0.0046,0.0048,0.005,0.0056,0.0058,0.007,0.0066,0.0066,0.0069,0.0068,0.0069,0.0069,0.0068,0.0068,0.0069,0.0081,0.0066,0.0073,0.0073,0.0074,0.0103,0.0106,0.0108,0,0,0,0,0,0.0045,0.005,0.0051,0.0052,0.0061,0.007,0.0072,0.0073,0.0069,0.0074,0.0071,0.0068,0.007,0.0069,0.0069,0.0081,0.0073,0.0073,0.0074,0.0102,0.0105,0.0108,0,0,0,0,0,0,0.0044,0.0051,0.0051,0.0058,0.0064,0.007,0.0074,0.0074,0.0076,0.0074,0.0071,0.0071,0.0076,0.0071,0.007,0.0083,0.0071,0.0071,0.0093,0.0095,0.0098,0.0112,0.0066,0,0,0,0,0,0.0045,0.0051,0.0057,0.0063,0.0066,0.0069,0.0073,0.0074,0.0076,0.0077,0.0076,0.0075,0.0078,0.008,0.008,0.0088,0.0083,0.0095,0.0097,0.0099,0.011,0.0109,0.0112,0.0075,0.0075,0.0075,0,0,0.0046,0.005,0.0054,0.0063,0.0067,0.0078,0.0071,0.0078,0.0088,0.0076,0.0087,0.0082,0.008,0.009,0.0092,0.0088,0.0105,0.01,0.0102,0.0111,0.011,0.0113,0.0117,0.0075,0.0075,0.0075,0,0,0.0053,0.0055,0.0064,0.0071,0.0078,0.0083,0.0085,0.0091,0.0095,0.0102,0.0097,0.01,0.01,0.0108,0.0111,0.0125,0.0115,0.012,0.0148,0.0147,0.015,0.0153,0.0145,0.0146,0.0124,0.0124,0.0124,0,0.0053,0.0067,0.0067,0.0079,0.0089,0.0086,0.0101,0.0106,0.0111,0.0121,0.0107,0.0119,0.0113,0.0138,0.0141,0.0132,0.0125,0.014,0.0151,0.0154,0.0156,0.0147,0.0148,0.0126,0.0126,0.0125,0.0125,0,0.0069,0.0081,0.0087,0.0102,0.0113,0.0124,0.0133,0.0142,0.0141,0.0147,0.0163,0.0157,0.0167,0.0163,0.0157,0.0177,0.0163,0.0152,0.0147,0.0162,0.0151,0.0152,0.0128,0.0127,0.0127,0.0126,0,0,0.007,0.0093,0.0096,0.0113,0.0128,0.0141,0.0159,0.0182,0.0204,0.0199,0.0225,0.0225,0.0221,0.0223,0.0216,0.0216,0.022,0.0194,0.0193,0.0191,0.0211,0.0192,0.0191,0.0209,0.021,0.021,0.0194,0,0.0084,0.0111,0.0121,0.0153,0.017,0.0182,0.0204,0.0223,0.0234,0.0255,0.0252,0.0267,0.0244,0.0251,0.0248,0.0229,0.0226,0.0225,0.0193,0.0192,0.0178,0.0193,0.0212,0.0195,0.0195,0.0195,0.0195,0,0.0098,0.0117,0.0148,0.0189,0.0199,0.0218,0.0263,0.0285,0.0311,0.0319,0.0333,0.0325,0.0331,0.0302,0.0284,0.0283,0.0253,0.0232,0.0231,0.0206,0.0176,0.0177,0.0198,0.0197,0.0197,0.0197,0.0197,0,0.0102,0.0139,0.0167,0.0179,0.022,0.0243,0.0269,0.0304,0.0339,0.0362,0.0383,0.038,0.0382,0.035,0.0301,0.0294,0.0271,0.0254,0.0209,0.0207,0.0215,0.0212,0.0241,0.0241,0.0241,0.0241,0.0241,0,0.0114,0.0138,0.0172,0.0188,0.0236,0.0259,0.0319,0.034,0.0385,0.0432,0.0418,0.0441,0.0394,0.0372,0.0321,0.027,0.0285,0.0222,0.0207,0.0226,0.0225,0.0216,0.0213,0.0241,0.0241,0.0241,0.0241,0,0.0113,0.0133,0.0171,0.0217,0.0238,0.0273,0.0353,0.0406,0.0431,0.049,0.0498,0.0491,0.0457,0.0405,0.0348,0.0299,0.0248,0.0224,0.025,0.0234,0.0179,0.0178,0.018,0.0179,0.0179,0.0178,0.0178,0,0.0115,0.0132,0.0189,0.0231,0.0255,0.0318,0.0377,0.0423,0.0481,0.052,0.0551,0.0527,0.0511,0.0416,0.0352,0.0258,0.0238,0.0208,0.0196,0.0191,0.0175,0.0175,0.0175,0.0177,0.0177,0.0176,0.0176,0,0.0121,0.0138,0.017,0.0252,0.0316,0.0402,0.0478,0.0504,0.0562,0.0588,0.0588,0.0537,0.0496,0.0412,0.0338,0.0269,0.0228,0.0202,0.0202,0.0191,0.0187,0.0172,0.0172,0.0174,0.0175,0.0175,0.0175,0,0.0127,0.0149,0.02,0.0276,0.037,0.0461,0.0491,0.0552,0.0594,0.0615,0.061,0.0555,0.0527,0.0418,0.0353,0.0282,0.0259,0.0226,0.0225,0.0227,0.024,0.0242,0.0242,0,0,0,0,0,0.0133,0.0165,0.0235,0.0318,0.042,0.0481,0.0566,0.0591,0.0617,0.062,0.0612,0.0568,0.046,0.0418,0.0343,0.034,0.0249,0.0249,0.0211,0.0163,0.0165,0.017,0,0,0,0,0,0,0.0142,0.0188,0.0225,0.0353,0.0426,0.0541,0.0593,0.0609,0.0607,0.0608,0.0552,0.054,0.0439,0.0501,0.0338,0.032,0.0282,0.0209,0.0207,0.0161,0.0164,0.0166,0.0171,0,0,0,0,0]}]]